EB1BCG-1 Weather Reports


time (UTC)temp
C
wind
direction
speed
KPH
gust
KPH
rain 1hr
cm
rain 24hr
cm
rain mn
cm
humidity
%
barometer
mb
20260508065540 6 158 0.0 0.0 0.00 0.30 0.05 99 1011.6
20260508064533 6 158 0.0 0.0 0.05 0.30 0.05 99 1011.6
20260508063526 5 158 0.0 0.0 0.05 0.30 0.05 99 1011.6
20260508062519 4 158 0.0 0.0 0.05 0.30 0.05 99 1011.6
20260508061516 4 158 0.0 0.0 0.05 0.30 0.05 99 1011.5
20260508060505 3 158 0.0 0.0 0.05 0.30 0.05 99 1011.5
20260508055457 3 158 0.0 0.0 0.05 0.30 0.05 99 1011.5
20260508053547 3 158 0.0 0.0 0.00 0.25 0.00 99 1011.2
20260508052540 3 158 0.0 0.0 0.00 0.25 0.00 99 1011.0
20260508051536 3 158 0.0 0.0 0.00 0.25 0.00 99 1011.0
20260508050525 2 158 0.0 0.0 0.00 0.25 0.00 99 1010.9
20260508045518 2 158 0.0 0.0 0.00 0.25 0.00 99 1010.9
20260508044511 2 158 0.0 0.0 0.00 0.25 0.00 99 1010.7
20260508043504 2 158 0.0 0.0 0.00 0.25 0.00 99 1010.8
20260508042457 2 158 0.0 0.0 0.00 0.25 0.00 99 1010.8
20260508041450 2 158 0.0 0.0 0.00 0.25 0.00 99 1010.7
20260508040443 2 158 0.0 0.0 0.00 0.25 0.00 99 1010.7
20260508035436 2 158 0.0 0.0 0.00 0.25 0.00 99 1010.8
20260508034428 2 158 0.0 0.0 0.00 0.25 0.00 99 1010.8
20260508033421 2 158 0.0 0.0 0.00 0.25 0.00 99 1010.8
20260508032416 2 158 0.0 0.0 0.00 0.25 0.00 99 1011.0
20260508031407 3 158 0.0 0.0 0.00 0.25 0.00 99 1011.1
20260508030400 3 158 0.0 0.0 0.00 0.25 0.00 99 1011.1
20260508025356 3 158 0.0 0.0 0.00 0.25 0.00 99 1011.2
20260508024347 3 158 0.0 0.0 0.00 0.25 0.00 99 1011.3
20260508023340 3 158 0.0 0.0 0.00 0.25 0.00 99 1011.2
20260508022336 3 158 0.0 0.0 0.00 0.25 0.00 99 1011.3
20260508021326 3 158 0.0 0.0 0.00 0.25 0.00 99 1011.4
20260508020319 3 158 0.0 0.0 0.00 0.25 0.00 99 1011.5
20260508015312 4 158 0.0 0.0 0.00 0.25 0.00 99 1011.5
20260508014308 5 158 0.0 0.0 0.00 0.25 0.00 99 1011.5
20260508013258 5 158 0.0 0.0 0.00 0.25 0.00 99 1011.6
20260508012251 4 158 0.0 0.0 0.00 0.25 0.00 99 1011.7
20260508011244 5 158 0.0 0.0 0.00 0.25 0.00 99 1011.9
20260508010237 5 158 0.0 0.0 0.00 0.25 0.00 99 1012.0
20260508005230 5 158 0.0 0.0 0.00 0.25 0.00 99 1012.1
20260508004223 5 158 0.0 0.0 0.00 0.25 0.00 99 1012.2
20260508003216 5 158 0.0 0.0 0.00 0.25 0.00 99 1012.3
20260508002209 5 158 0.0 0.0 0.00 0.25 0.00 99 1012.4
20260508001202 5 158 0.0 0.0 0.00 0.25 0.00 99 1012.5
20260508000156 5 158 0.0 0.0 0.00 0.25 0.00 99 1012.5
20260507235147 5 158 0.0 0.0 0.00 0.25 0.00 99 1012.6
20260507234139 5 158 0.0 0.0 0.00 0.25 0.00 99 1012.4
20260507233135 5 158 0.0 0.0 0.00 0.25 0.00 99 1012.5
20260507232125 6 158 0.0 0.0 0.00 0.25 0.00 99 1012.6
20260507231120 6 158 0.0 0.0 0.00 0.25 0.00 99 1012.6
20260507230111 6 158 0.0 0.0 0.00 0.25 0.00 99 1012.5
20260507225104 6 158 0.0 0.0 0.00 0.25 0.00 99 1012.7
20260507224101 6 158 0.0 0.0 0.00 0.25 0.00 99 1012.6
20260507223050 6 158 0.0 0.0 0.00 0.25 0.00 99 1012.4
20260507222043 6 158 0.0 0.0 0.00 0.25 0.00 99 1012.4
20260507221037 6 158 0.0 0.0 0.00 0.25 0.00 99 1012.3
20260507220030 6 158 0.0 0.0 0.00 0.25 0.00 99 1012.5
20260507215023 6 158 0.0 0.0 0.00 0.25 0.25 99 1012.4
20260507214016 6 158 0.0 0.0 0.00 0.25 0.25 99 1012.4
20260507213009 6 158 0.0 0.0 0.00 0.25 0.25 99 1012.4
20260507212002 7 158 0.0 0.0 0.00 0.25 0.25 99 1012.3
20260507210955 7 158 0.0 0.0 0.00 0.25 0.25 99 1012.3
20260507205948 7 158 0.0 0.0 0.00 0.25 0.25 99 1012.3
20260507204941 7 158 0.0 0.0 0.00 0.25 0.25 99 1012.0
20260507203935 7 158 0.0 0.0 0.00 0.25 0.25 99 1012.0
20260507202928 7 158 0.0 0.0 0.00 0.25 0.25 99 1011.7
20260507201921 8 158 0.0 0.0 0.00 0.25 0.25 99 1011.5
20260507200915 8 158 0.0 4.8 0.00 0.25 0.25 99 1011.4
20260507195907 8 158 0.0 4.8 0.00 0.25 0.25 99 1011.3
20260507194859 8 158 0.0 3.2 0.00 0.25 0.25 99 1011.1
20260507193855 8 158 0.0 0.0 0.00 0.25 0.25 97 1010.9
20260507192845 8 158 0.0 4.8 0.00 0.25 0.25 97 1010.8
20260507191839 9 158 0.0 4.8 0.00 0.25 0.25 89 1010.9
20260507190835 9 225 0.0 0.0 0.00 0.25 0.25 86 1010.6
20260507185825 10 225 0.0 0.0 0.00 0.25 0.25 85 1010.4
20260507184818 10 225 0.0 0.0 0.00 0.25 0.25 82 1010.3
20260507183815 10 225 0.0 0.0 0.00 0.25 0.25 77 1010.4
20260507182803 11 225 0.0 0.0 0.00 0.25 0.25 77 1010.4
20260507181756 11 248 0.0 0.0 0.00 0.25 0.25 77 1010.3
20260507180749 11 248 0.0 0.0 0.00 0.25 0.25 77 1010.4
20260507175742 11 248 0.0 0.0 0.00 0.25 0.25 77 1010.3
20260507174735 11 248 0.0 0.0 0.00 0.25 0.25 76 1010.3
20260507173728 11 248 0.0 0.0 0.00 0.25 0.25 72 1010.2
20260507172721 11 248 0.0 0.0 0.00 0.25 0.25 72 1010.1
20260507171715 11 248 0.0 0.0 0.00 0.25 0.25 75 1010.1
20260507170708 11 270 0.0 0.0 0.00 0.25 0.25 70 1010.2
20260507165701 12 270 0.0 0.0 0.00 0.25 0.25 69 1010.1
20260507164654 12 270 0.0 0.0 0.00 0.25 0.25 72 1010.0
20260507163647 12 270 0.0 0.0 0.00 0.25 0.25 79 1010.0
20260507162640 13 270 0.0 0.0 0.00 0.25 0.25 88 1010.0
20260507161634 12 270 0.0 0.0 0.00 0.25 0.25 89 1010.2
20260507160625 11 270 0.0 0.0 0.00 0.25 0.25 88 1010.3
20260507155618 11 270 0.0 0.0 0.00 0.25 0.25 86 1010.3
20260507154614 10 270 0.0 0.0 0.00 0.25 0.25 94 1010.4
20260507153605 10 270 0.0 0.0 0.00 0.25 0.25 97 1010.6
20260507152558 10 270 0.0 0.0 0.15 0.25 0.25 99 1010.6
20260507151549 10 270 0.0 0.0 0.15 0.25 0.25 99 1010.6
20260507150542 10 270 0.0 0.0 0.15 0.25 0.25 99 1010.4
20260507145535 9 270 0.0 0.0 0.15 0.25 0.25 99 1010.5
20260507144534 9 270 0.0 0.0 0.15 0.25 0.25 97 1010.8
20260507143521 9 270 0.0 0.0 0.15 0.25 0.25 89 1011.0
20260507142627 9 248 0.0 14.5 0.10 0.20 0.20 80 1011.1
20260507141720 10 270 0.0 3.2 0.00 0.10 0.10 73 1010.8
20260507140714 10 338 1.6 6.4 0.00 0.10 0.10 69 1010.3
20260507135707 11 338 0.0 4.8 0.00 0.10 0.10 67 1010.2
20260507134700 11 338 0.0 6.4 0.00 0.10 0.10 64 1010.2
20260507133654 11 338 0.0 4.8 0.00 0.10 0.10 60 1010.3
20260507132647 12 315 0.0 8.0 0.00 0.10 0.10 58 1010.2
20260507131641 13 338 0.0 3.2 0.00 0.10 0.10 57 1010.2
20260507130634 13 338 0.0 11.3 0.00 0.10 0.10 55 1010.3
20260507125628 13 338 0.0 6.4 0.00 0.10 0.10 51 1010.1
20260507124623 15 293 0.0 6.4 0.00 0.10 0.10 46 1010.1
20260507123617 16 203 0.0 3.2 0.00 0.10 0.10 44 1010.0
20260507122614 20 203 1.6 9.7 0.00 0.10 0.10 46 1010.0
20260507121605 20 180 3.2 14.5 0.00 0.10 0.10 46 1010.0
20260507120559 20 135 0.0 0.0 0.00 0.10 0.10 50 1010.1
20260507115554 17 113 0.0 4.8 0.00 0.10 0.10 52 1010.5
20260507114542 17 135 0.0 3.2 0.00 0.10 0.10 52 1010.6
20260507113536 14 158 0.0 8.0 0.00 0.10 0.10 55 1010.7
20260507112529 15 158 6.4 12.9 0.00 0.10 0.10 57 1011.0
20260507111522 15 158 1.6 12.9 0.00 0.10 0.10 54 1011.2
20260507110516 15 158 1.6 9.7 0.00 0.10 0.10 55 1011.1
20260507105509 15 180 4.8 17.7 0.00 0.10 0.10 58 1011.1
20260507104502 15 180 3.2 14.5 0.00 0.10 0.10 62 1011.2
20260507103454 16 180 6.4 17.7 0.00 0.10 0.10 66 1011.2
20260507102447 13 158 4.8 12.9 0.00 0.10 0.10 63 1011.3
20260507101440 15 158 0.0 0.0 0.10 0.10 0.10 68 1011.2
20260507100434 14 180 0.0 3.2 0.10 0.10 0.10 75 1011.4
20260507095425 13 158 3.2 8.0 0.10 0.10 0.10 76 1011.5
20260507094417 13 180 1.6 8.0 0.10 0.10 0.10 87 1011.3
20260507093409 12 135 3.2 12.9 0.10 0.10 0.10 87 1011.1
20260507092402 9 45 0.0 0.0 0.10 0.10 0.10 81 1010.7
20260507091502 9 135 0.0 0.0 0.05 0.05 0.05 73 1011.4
20260507090601 10 158 0.0 14.5 0.00 0.00 0.00 69 1011.6
20260507085555 10 180 0.0 6.4 0.00 0.00 0.00 68 1011.5
20260507084548 12 158 1.6 6.4 0.00 0.00 0.00 69 1011.2
20260507083541 12 158 0.0 8.0 0.00 0.00 0.00 77 1011.1
20260507082534 12 135 0.0 3.2 0.00 0.00 0.00 76 1011.0
20260507081526 11 68 0.0 0.0 0.00 0.00 0.00 81 1011.1
20260507080518 10 68 0.0 0.0 0.00 0.00 0.00 80 1011.1
20260507075514 10 68 0.0 0.0 0.00 0.00 0.00 82 1011.2
20260507074504 9 68 0.0 0.0 0.00 0.00 0.00 87 1011.1
20260507073457 8 68 0.0 0.0 0.00 0.00 0.00 87 1011.2
20260507072450 8 68 0.0 0.0 0.00 0.00 0.00 91 1011.2
20260507071442 7 68 0.0 0.0 0.00 0.00 0.00 93 1011.3
20260507070435 7 68 0.0 0.0 0.00 0.00 0.00 99 1011.4